EZY39MW DTNH-EGNT

Flight info

Callsign EZY39MW
Flight time 3h 5m
Altitude 36000
Route VAXAL A411 TUC UM733 OSMAR DCT PIRIX DCT CAR DCT GIGGI DCT UPDUT DCT CORSI DCT OMEDA DCT MERLU DCT PIGOS DCT BARSO DCT OKTET DCT GIPNO DCT BULOL DCT IDAVO DCT BAGBI DCT SIZZA DCT LAULY DCT BRY DCT CLM DCT KOPOR DCT VESAN DCT RATUK DCT SOVAT L613 MAMUL UY250 RIMTO
Aircraft A20N/M-SDE2E3FGHIJ1RWXYZ/LB1

Departure

Time 2026-05-04 11:35
Airport Enfidha - Hammamet International Airport (DTNH)

Arrival

Time 2026-05-04 14:41
Airport Newcastle International Airport (EGNT)
Time Latitude Longitude Altitude Speed Heading
2026-05-04 10:51 36.08296 10.43609 15 ft 0 kts 82°
2026-05-04 11:24 36.08312 10.43515 17 ft 0 kts 174°
2026-05-04 11:28 36.08305 10.43516 18 ft 3 kts 175°
2026-05-04 11:29 36.08280 10.43517 18 ft 3 kts 178°
2026-05-04 11:29 36.08245 10.43518 19 ft 9 kts 179°
2026-05-04 11:29 36.08168 10.43518 20 ft 14 kts 180°
2026-05-04 11:29 36.08063 10.43499 23 ft 18 kts 220°
2026-05-04 11:31 36.07753 10.43109 27 ft 12 kts 261°
2026-05-04 11:33 36.07583 10.42339 29 ft 0 kts 90°
2026-05-04 11:34 36.07583 10.42400 29 ft 31 kts 90°
2026-05-04 11:34 36.07568 10.42951 29 ft 95 kts 90°
2026-05-04 11:34 36.07564 10.43996 30 ft 145 kts 91°
2026-05-04 11:35 36.07550 10.45420 131 ft 174 kts 91°
2026-05-04 11:35 36.07603 10.46896 693 ft 174 kts 90°
2026-05-04 11:35 36.07729 10.48457 1030 ft 194 kts 85°
2026-05-04 11:35 36.08291 10.50075 1334 ft 220 kts 55°
2026-05-04 11:36 36.09551 10.51299 1682 ft 245 kts 22°
2026-05-04 11:36 36.11309 10.51649 2130 ft 268 kts 356°
2026-05-04 11:36 36.13177 10.51388 2950 ft 274 kts 349°
2026-05-04 11:36 36.15074 10.51039 3984 ft 272 kts 350°
2026-05-04 11:37 36.16924 10.50769 4868 ft 276 kts 352°
2026-05-04 11:37 36.18898 10.50571 5890 ft 276 kts 354°
2026-05-04 11:37 36.20807 10.50428 6846 ft 276 kts 355°
2026-05-04 11:37 36.22747 10.50312 7747 ft 278 kts 355°
2026-05-04 11:38 36.24660 10.50206 8626 ft 280 kts 355°
2026-05-04 11:38 36.26613 10.50098 9515 ft 283 kts 355°
2026-05-04 11:38 36.28553 10.49704 10355 ft 283 kts 337°
2026-05-04 11:38 36.30259 10.48387 10781 ft 300 kts 314°
2026-05-04 11:39 36.31601 10.46297 11072 ft 321 kts 303°
2026-05-04 11:39 36.32826 10.43906 11610 ft 332 kts 301°
2026-05-04 11:40 36.44641 10.35053 16104 ft 357 kts 344°
2026-05-04 11:41 36.47074 10.34339 16794 ft 359 kts 343°
2026-05-04 11:41 36.49509 10.33575 17454 ft 363 kts 343°
2026-05-04 11:41 36.51965 10.32800 18131 ft 366 kts 343°
2026-05-04 11:41 36.54449 10.32027 18743 ft 369 kts 343°
2026-05-04 11:42 36.56993 10.31243 19321 ft 372 kts 343°
2026-05-04 11:42 36.59509 10.30475 19866 ft 376 kts 343°
2026-05-04 11:42 36.62074 10.29692 20419 ft 379 kts 343°
2026-05-04 11:42 36.64657 10.28904 20970 ft 383 kts 343°
2026-05-04 11:43 36.67251 10.28112 21488 ft 386 kts 343°
2026-05-04 11:43 36.69877 10.27310 22041 ft 389 kts 343°
2026-05-04 11:43 36.72490 10.26511 22567 ft 393 kts 343°
2026-05-04 11:43 36.75149 10.25699 23095 ft 396 kts 343°
2026-05-04 11:44 36.77844 10.24875 23619 ft 400 kts 343°
2026-05-04 11:44 36.80545 10.24047 24092 ft 402 kts 343°
2026-05-04 11:44 36.83242 10.23220 24540 ft 404 kts 343°
2026-05-04 11:44 36.86006 10.22373 25001 ft 406 kts 343°
2026-05-04 11:45 36.88763 10.21527 25457 ft 408 kts 342°
2026-05-04 11:45 36.91535 10.20675 25907 ft 410 kts 342°
2026-05-04 11:45 36.94310 10.19821 26313 ft 413 kts 342°
2026-05-04 11:45 36.97116 10.18957 26720 ft 415 kts 342°
2026-05-04 11:46 36.99889 10.18103 27118 ft 417 kts 342°
2026-05-04 11:46 37.02754 10.17219 27533 ft 419 kts 342°
2026-05-04 11:46 37.05596 10.16343 27917 ft 421 kts 342°
2026-05-04 11:46 37.08437 10.15466 28255 ft 424 kts 342°
2026-05-04 11:47 37.11306 10.14579 28625 ft 425 kts 342°
2026-05-04 11:47 37.14183 10.13689 28985 ft 427 kts 342°
2026-05-04 11:47 37.17082 10.12792 29325 ft 430 kts 342°
2026-05-04 11:47 37.19998 10.11890 29646 ft 432 kts 342°
2026-05-04 11:48 37.22924 10.10984 29996 ft 433 kts 342°
2026-05-04 11:48 37.25896 10.10062 30298 ft 435 kts 342°
2026-05-04 11:48 37.28838 10.09149 30602 ft 437 kts 341°
2026-05-04 11:48 37.31741 10.08246 30876 ft 438 kts 341°
2026-05-04 11:49 37.34773 10.07304 31193 ft 439 kts 341°
2026-05-04 11:49 37.37740 10.06381 31533 ft 439 kts 341°
2026-05-04 11:49 37.40667 10.05470 31913 ft 438 kts 341°
2026-05-04 11:49 37.43661 10.04538 32282 ft 437 kts 341°
2026-05-04 11:50 37.46612 10.03618 32653 ft 435 kts 341°
2026-05-04 11:50 37.49515 10.02711 33004 ft 434 kts 341°
2026-05-04 11:50 37.52444 10.01796 33358 ft 433 kts 341°
2026-05-04 11:50 37.55377 10.00879 33685 ft 432 kts 341°
2026-05-04 11:51 37.58289 9.99968 34012 ft 431 kts 341°
2026-05-04 11:51 37.61201 9.99056 34295 ft 430 kts 341°
2026-05-04 11:51 37.64111 9.98144 34590 ft 428 kts 341°
2026-05-04 11:51 37.67047 9.97223 34850 ft 428 kts 340°
2026-05-04 11:52 37.69933 9.96317 35104 ft 427 kts 340°
2026-05-04 11:52 37.72778 9.95423 35363 ft 425 kts 340°
2026-05-04 11:52 37.75656 9.94518 35610 ft 425 kts 340°
2026-05-04 11:52 37.78558 9.93604 35829 ft 424 kts 340°
2026-05-04 11:53 37.81420 9.92702 36038 ft 423 kts 340°
2026-05-04 11:53 37.87093 9.90913 36066 ft 421 kts 340°
2026-05-04 11:55 38.09916 9.83686 36070 ft 421 kts 340°
2026-05-04 11:56 38.15561 9.81883 36065 ft 420 kts 340°
2026-05-04 11:56 38.20293 9.80381 36066 ft 420 kts 340°
2026-05-04 11:57 38.25975 9.78576 36069 ft 419 kts 340°
2026-05-04 11:57 38.31642 9.76761 36065 ft 419 kts 340°
2026-05-04 11:58 38.37296 9.74944 36064 ft 419 kts 340°
2026-05-04 11:58 38.42953 9.73124 36070 ft 418 kts 340°
2026-05-04 11:59 38.48593 9.71308 36066 ft 418 kts 340°
2026-05-04 11:59 38.54245 9.69485 36072 ft 418 kts 340°
2026-05-04 12:00 38.59884 9.67663 36073 ft 417 kts 340°
2026-05-04 12:00 38.65433 9.65867 36078 ft 417 kts 340°
2026-05-04 12:01 38.71073 9.64039 36085 ft 417 kts 340°
2026-05-04 12:02 38.90749 9.57640 36085 ft 416 kts 339°
2026-05-04 12:03 38.96400 9.55757 36086 ft 416 kts 339°
2026-05-04 12:03 39.01971 9.53884 36085 ft 416 kts 339°
2026-05-04 12:04 39.07574 9.52004 36078 ft 416 kts 339°
2026-05-04 12:04 39.13035 9.50186 36091 ft 417 kts 340°
2026-05-04 12:05 39.18717 9.48518 36081 ft 418 kts 341°
2026-05-04 12:05 39.24415 9.46864 36089 ft 420 kts 340°
2026-05-04 12:06 39.30046 9.45200 36100 ft 419 kts 340°
2026-05-04 12:06 39.35820 9.43480 36094 ft 420 kts 340°
2026-05-04 12:07 39.41533 9.41777 36111 ft 422 kts 340°
2026-05-04 12:07 39.47250 9.40069 36129 ft 423 kts 340°
2026-05-04 12:08 39.52997 9.38350 36140 ft 423 kts 340°
2026-05-04 12:08 39.58731 9.36632 36158 ft 425 kts 340°
2026-05-04 12:09 39.64511 9.34896 36165 ft 426 kts 339°
2026-05-04 12:09 39.70285 9.33163 36130 ft 424 kts 339°
2026-05-04 12:10 39.76014 9.31436 36121 ft 425 kts 339°
2026-05-04 12:10 39.81774 9.29699 36115 ft 426 kts 339°
2026-05-04 12:11 39.87574 9.27947 36108 ft 426 kts 339°
2026-05-04 12:11 39.93368 9.26194 36097 ft 426 kts 339°
2026-05-04 12:12 39.99149 9.24439 36093 ft 427 kts 339°
2026-05-04 12:12 40.04926 9.22684 36082 ft 426 kts 338°
2026-05-04 12:14 40.28023 9.15632 36072 ft 426 kts 338°
2026-05-04 12:15 40.33790 9.13827 36057 ft 425 kts 338°
2026-05-04 12:15 40.39542 9.12019 36070 ft 425 kts 338°
2026-05-04 12:16 40.45346 9.10190 36074 ft 428 kts 338°
2026-05-04 12:16 40.51147 9.08367 36073 ft 429 kts 338°
2026-05-04 12:17 40.56713 9.06616 36075 ft 428 kts 337°
2026-05-04 12:17 40.62535 9.04778 36062 ft 428 kts 338°
2026-05-04 12:18 40.68221 9.02979 36059 ft 428 kts 338°
2026-05-04 12:18 40.74030 9.01140 36061 ft 428 kts 338°
2026-05-04 12:19 40.79822 8.99304 36050 ft 428 kts 337°
2026-05-04 12:19 40.85610 8.97461 36047 ft 426 kts 338°
2026-05-04 12:20 40.91393 8.95619 36042 ft 427 kts 338°
2026-05-04 12:20 40.97199 8.93764 36054 ft 429 kts 338°
2026-05-04 12:21 41.02986 8.91915 36059 ft 429 kts 337°
2026-05-04 12:21 41.08813 8.90047 36071 ft 433 kts 338°
2026-05-04 12:22 41.14665 8.88173 36060 ft 429 kts 338°
2026-05-04 12:22 41.20491 8.86299 36070 ft 431 kts 338°
2026-05-04 12:23 41.26254 8.84324 36079 ft 427 kts 333°
2026-05-04 12:23 41.31885 8.81853 36078 ft 425 kts 333°
2026-05-04 12:24 41.37523 8.79383 36083 ft 426 kts 333°
2026-05-04 12:24 41.42211 8.77288 36083 ft 426 kts 333°
2026-05-04 12:25 41.47841 8.74767 36079 ft 427 kts 333°
2026-05-04 12:25 41.53486 8.72240 36077 ft 427 kts 333°
2026-05-04 12:26 41.59150 8.69699 36070 ft 429 kts 333°
2026-05-04 12:26 41.64782 8.67170 36059 ft 429 kts 333°
2026-05-04 12:27 41.70454 8.64617 36056 ft 430 kts 333°
2026-05-04 12:27 41.76123 8.62061 36055 ft 430 kts 333°
2026-05-04 12:28 41.81796 8.59499 36054 ft 430 kts 333°
2026-05-04 12:28 41.87478 8.56928 36052 ft 430 kts 333°
2026-05-04 12:29 41.93157 8.54353 36050 ft 430 kts 333°
2026-05-04 12:29 41.98797 8.51790 36049 ft 430 kts 333°
2026-05-04 12:30 42.04521 8.49185 36051 ft 431 kts 333°
2026-05-04 12:30 42.10163 8.46612 36053 ft 431 kts 333°
2026-05-04 12:31 42.15858 8.44010 36042 ft 431 kts 333°
2026-05-04 12:31 42.21549 8.41405 36044 ft 431 kts 333°
2026-05-04 12:32 42.30054 8.37502 36045 ft 431 kts 333°
2026-05-04 12:33 42.35483 8.34261 36047 ft 420 kts 322°
2026-05-04 12:33 42.40594 8.30412 36044 ft 421 kts 323°
2026-05-04 12:34 42.45739 8.26577 36052 ft 421 kts 323°
2026-05-04 12:34 42.50843 8.22753 36054 ft 421 kts 323°
2026-05-04 12:35 42.55987 8.18884 36055 ft 422 kts 323°
2026-05-04 12:35 42.61128 8.15009 36057 ft 422 kts 323°
2026-05-04 12:36 42.66278 8.11120 36056 ft 423 kts 323°
2026-05-04 12:36 42.71426 8.07226 36053 ft 423 kts 323°
2026-05-04 12:37 42.76539 8.03350 36060 ft 423 kts 323°
2026-05-04 12:37 42.81696 7.99433 36060 ft 424 kts 323°
2026-05-04 12:38 42.86851 7.95511 36066 ft 424 kts 323°
2026-05-04 12:38 42.92018 7.91572 36061 ft 425 kts 323°
2026-05-04 12:39 42.97192 7.87620 36062 ft 425 kts 323°
2026-05-04 12:39 43.02366 7.83659 36058 ft 426 kts 323°
2026-05-04 12:40 43.07512 7.79713 36060 ft 427 kts 323°
2026-05-04 12:40 43.12701 7.75717 36058 ft 427 kts 323°
2026-05-04 12:41 43.17890 7.71703 36061 ft 428 kts 323°
2026-05-04 12:41 43.23088 7.67678 36064 ft 429 kts 323°
2026-05-04 12:42 43.28306 7.63631 36065 ft 430 kts 323°
2026-05-04 12:42 43.33517 7.59580 36068 ft 431 kts 323°
2026-05-04 12:43 43.38721 7.55527 36075 ft 432 kts 323°
2026-05-04 12:43 43.43958 7.51441 36079 ft 433 kts 323°
2026-05-04 12:44 43.49206 7.47338 36088 ft 434 kts 323°
2026-05-04 12:44 43.54470 7.43213 36076 ft 433 kts 323°
2026-05-04 12:45 43.59710 7.39101 36078 ft 434 kts 323°
2026-05-04 12:45 43.64905 7.34664 36076 ft 431 kts 320°
2026-05-04 12:46 43.69880 7.30113 36079 ft 432 kts 320°
2026-05-04 12:46 43.74900 7.25526 36066 ft 432 kts 320°
2026-05-04 12:47 43.79919 7.20921 36087 ft 433 kts 320°
2026-05-04 12:47 43.84942 7.16299 36083 ft 433 kts 320°
2026-05-04 12:48 43.89969 7.11665 36086 ft 433 kts 320°
2026-05-04 12:48 43.95058 7.06964 36090 ft 433 kts 320°
2026-05-04 12:49 44.00072 7.02325 36084 ft 433 kts 320°
2026-05-04 12:49 44.05058 6.97701 36077 ft 432 kts 320°
2026-05-04 12:50 44.10047 6.93060 36097 ft 433 kts 320°
2026-05-04 12:50 44.15088 6.88362 36104 ft 436 kts 320°
2026-05-04 12:51 44.19275 6.84453 36108 ft 436 kts 320°
2026-05-04 12:51 44.24344 6.79708 36106 ft 436 kts 319°
2026-05-04 12:52 44.29439 6.74928 36108 ft 437 kts 319°
2026-05-04 12:52 44.34473 6.70196 36100 ft 437 kts 319°
2026-05-04 12:53 44.39483 6.65477 36094 ft 436 kts 319°
2026-05-04 12:53 44.44529 6.60712 36097 ft 438 kts 319°
2026-05-04 12:54 44.49608 6.55909 36093 ft 439 kts 319°
2026-05-04 12:54 44.54633 6.51145 36112 ft 441 kts 319°
2026-05-04 12:55 44.59726 6.46312 36119 ft 443 kts 319°
2026-05-04 12:55 44.64867 6.41426 36108 ft 443 kts 319°
2026-05-04 12:56 44.69975 6.36554 36115 ft 442 kts 319°
2026-05-04 12:56 44.75077 6.31681 36114 ft 443 kts 319°
2026-05-04 12:57 44.80182 6.26792 36101 ft 443 kts 319°
2026-05-04 12:57 44.85277 6.21903 36094 ft 443 kts 319°
2026-05-04 12:58 44.90417 6.17053 36076 ft 447 kts 324°
2026-05-04 12:58 44.95883 6.12815 36074 ft 451 kts 325°
2026-05-04 12:59 45.01412 6.08525 36067 ft 452 kts 325°
2026-05-04 12:59 45.06950 6.04276 36058 ft 453 kts 326°
2026-05-04 13:00 45.12538 5.99991 36055 ft 453 kts 326°
2026-05-04 13:00 45.17761 5.95974 36047 ft 453 kts 326°
2026-05-04 13:01 45.23280 5.91718 36029 ft 455 kts 326°
2026-05-04 13:01 45.28872 5.87395 36042 ft 456 kts 326°
2026-05-04 13:02 45.34436 5.83086 36067 ft 455 kts 326°
2026-05-04 13:02 45.40029 5.78743 36051 ft 457 kts 326°
2026-05-04 13:03 45.45587 5.74420 36058 ft 458 kts 326°
2026-05-04 13:03 45.51201 5.70040 36066 ft 460 kts 326°
2026-05-04 13:04 45.56835 5.65636 36068 ft 460 kts 326°
2026-05-04 13:04 45.62467 5.61224 36083 ft 461 kts 326°
2026-05-04 13:05 45.68093 5.56808 36061 ft 461 kts 326°
2026-05-04 13:05 45.73172 5.52811 36059 ft 462 kts 326°
2026-05-04 13:06 45.78840 5.48340 36039 ft 462 kts 326°
2026-05-04 13:06 45.84487 5.43876 36037 ft 463 kts 326°
2026-05-04 13:07 45.90086 5.39439 36034 ft 462 kts 326°
2026-05-04 13:07 45.95730 5.34958 36025 ft 462 kts 326°
2026-05-04 13:08 46.01353 5.30480 36016 ft 462 kts 326°
2026-05-04 13:08 46.06416 5.26439 36006 ft 462 kts 326°
2026-05-04 13:09 46.12035 5.21944 36006 ft 462 kts 326°
2026-05-04 13:09 46.17655 5.17439 36007 ft 462 kts 326°
2026-05-04 13:10 46.23266 5.12930 36009 ft 463 kts 326°
2026-05-04 13:10 46.28923 5.08374 36007 ft 464 kts 326°
2026-05-04 13:11 46.34549 5.03831 36015 ft 465 kts 326°
2026-05-04 13:11 46.40233 4.99231 36012 ft 466 kts 326°
2026-05-04 13:12 46.45823 4.94696 36020 ft 466 kts 326°
2026-05-04 13:12 46.51505 4.90076 36023 ft 467 kts 326°
2026-05-04 13:13 46.57189 4.85441 36007 ft 468 kts 326°
2026-05-04 13:13 46.62821 4.80839 36016 ft 469 kts 326°
2026-05-04 13:14 46.68563 4.76136 36017 ft 469 kts 326°
2026-05-04 13:14 46.74250 4.71465 36019 ft 469 kts 326°
2026-05-04 13:15 46.79871 4.66839 36006 ft 470 kts 326°
2026-05-04 13:15 46.85562 4.62144 35999 ft 468 kts 326°
2026-05-04 13:16 46.91249 4.57440 35995 ft 469 kts 326°
2026-05-04 13:16 46.96938 4.52722 35989 ft 470 kts 326°
2026-05-04 13:17 47.02595 4.48019 35989 ft 470 kts 326°
2026-05-04 13:17 47.07306 4.44095 35981 ft 470 kts 326°
2026-05-04 13:18 47.13052 4.39297 35981 ft 470 kts 326°
2026-05-04 13:18 47.18144 4.35035 35978 ft 470 kts 326°
2026-05-04 13:19 47.23812 4.30280 35975 ft 470 kts 326°
2026-05-04 13:19 47.29511 4.25487 35973 ft 470 kts 326°
2026-05-04 13:20 47.35183 4.20704 35973 ft 470 kts 326°
2026-05-04 13:20 47.40827 4.15933 35971 ft 470 kts 326°
2026-05-04 13:21 47.46496 4.11129 35965 ft 470 kts 326°
2026-05-04 13:21 47.52168 4.06311 35963 ft 470 kts 326°
2026-05-04 13:22 47.57840 4.01480 35965 ft 470 kts 326°
2026-05-04 13:22 47.63512 3.96637 35961 ft 470 kts 326°
2026-05-04 13:23 47.69176 3.91789 35962 ft 470 kts 326°
2026-05-04 13:23 47.74801 3.86962 35961 ft 470 kts 326°
2026-05-04 13:24 47.80550 3.82016 35960 ft 470 kts 326°
2026-05-04 13:24 47.86185 3.77156 35961 ft 470 kts 326°
2026-05-04 13:25 47.94669 3.69814 35960 ft 471 kts 326°
2026-05-04 13:25 48.00255 3.64965 35963 ft 472 kts 326°
2026-05-04 13:26 48.05919 3.60037 35961 ft 470 kts 326°
2026-05-04 13:26 48.10908 3.55685 35961 ft 470 kts 326°
2026-05-04 13:27 48.16601 3.50706 35964 ft 470 kts 326°
2026-05-04 13:27 48.22154 3.45837 35965 ft 470 kts 326°
2026-05-04 13:28 48.27217 3.41388 35967 ft 470 kts 326°
2026-05-04 13:28 48.32946 3.36345 35967 ft 470 kts 326°
2026-05-04 13:29 48.38589 3.31368 35970 ft 470 kts 326°
2026-05-04 13:29 48.44505 3.27033 35969 ft 474 kts 334°
2026-05-04 13:30 48.50582 3.23180 35970 ft 474 kts 334°
2026-05-04 13:30 48.56627 3.19322 35973 ft 473 kts 334°
2026-05-04 13:31 48.62696 3.15432 35959 ft 473 kts 334°
2026-05-04 13:31 48.68787 3.11516 35966 ft 473 kts 333°
2026-05-04 13:32 48.74839 3.07616 35961 ft 473 kts 333°
2026-05-04 13:32 48.80866 3.03722 35958 ft 473 kts 333°
2026-05-04 13:33 48.86584 2.99549 35958 ft 469 kts 326°
2026-05-04 13:33 48.91309 2.95385 35965 ft 470 kts 326°
2026-05-04 13:34 48.95798 2.91479 35960 ft 470 kts 326°
2026-05-04 13:34 49.00784 2.87123 35962 ft 470 kts 326°
2026-05-04 13:35 49.09319 2.79619 35968 ft 470 kts 326°
2026-05-04 13:36 49.14952 2.74649 35967 ft 470 kts 326°
2026-05-04 13:36 49.19477 2.70646 35973 ft 470 kts 326°
2026-05-04 13:37 49.21103 2.69205 35968 ft 470 kts 326°
2026-05-04 13:37 49.24481 2.66209 35965 ft 469 kts 326°
2026-05-04 13:38 49.30126 2.61191 35966 ft 469 kts 326°
2026-05-04 13:38 49.35777 2.56156 35961 ft 469 kts 326°
2026-05-04 13:39 49.41431 2.51105 35966 ft 469 kts 326°
2026-05-04 13:39 49.46161 2.46869 35967 ft 469 kts 326°
2026-05-04 13:40 49.51936 2.42207 35965 ft 472 kts 335°
2026-05-04 13:40 49.58157 2.39141 35960 ft 473 kts 341°
2026-05-04 13:41 49.64485 2.36243 35962 ft 473 kts 341°
2026-05-04 13:41 49.70763 2.33365 35958 ft 473 kts 341°
2026-05-04 13:42 49.80244 2.29031 35956 ft 473 kts 341°
2026-05-04 13:42 49.86551 2.26141 35963 ft 473 kts 341°
2026-05-04 13:43 49.92869 2.23237 35969 ft 473 kts 341°
2026-05-04 13:43 49.99198 2.20321 35967 ft 473 kts 341°
2026-05-04 13:44 50.05503 2.17408 35964 ft 473 kts 341°
2026-05-04 13:44 50.11808 2.14486 35969 ft 473 kts 341°
2026-05-04 13:45 50.18123 2.11552 35972 ft 472 kts 341°
2026-05-04 13:45 50.24413 2.08621 35972 ft 472 kts 341°
2026-05-04 13:46 50.30644 2.05711 35968 ft 471 kts 341°
2026-05-04 13:46 50.36702 2.01932 35977 ft 466 kts 328°
2026-05-04 13:47 50.39347 1.99365 35979 ft 463 kts 321°
2026-05-04 13:47 50.42932 1.94773 35983 ft 460 kts 315°
2026-05-04 13:48 50.47776 1.88198 35974 ft 460 kts 316°
2026-05-04 13:48 50.52391 1.81926 35989 ft 460 kts 316°
2026-05-04 13:49 50.57246 1.75277 35991 ft 460 kts 315°
2026-05-04 13:49 50.62074 1.68639 35991 ft 460 kts 315°
2026-05-04 13:50 50.66907 1.61974 35985 ft 460 kts 315°
2026-05-04 13:50 50.71732 1.55295 35992 ft 460 kts 315°
2026-05-04 13:51 50.76545 1.48614 36007 ft 460 kts 315°
2026-05-04 13:51 50.81285 1.42018 35995 ft 460 kts 315°
2026-05-04 13:52 50.88426 1.32054 36006 ft 460 kts 315°
2026-05-04 13:53 50.92138 1.26858 36012 ft 460 kts 315°
2026-05-04 13:53 50.96676 1.20488 36015 ft 460 kts 315°
2026-05-04 13:54 51.03872 1.10353 36017 ft 460 kts 315°
2026-05-04 13:55 51.11659 1.00990 36015 ft 462 kts 322°
2026-05-04 13:55 51.19433 0.92363 36014 ft 462 kts 322°
2026-05-04 13:56 51.24677 0.86530 36005 ft 463 kts 322°
2026-05-04 13:57 51.32528 0.77771 36015 ft 462 kts 322°
2026-05-04 13:58 51.43066 0.65955 36022 ft 462 kts 322°
2026-05-04 13:58 51.50931 0.57092 36025 ft 461 kts 322°
2026-05-04 13:59 51.54651 0.52887 36021 ft 461 kts 322°
2026-05-04 14:00 51.61871 0.44700 36020 ft 460 kts 322°
2026-05-04 14:00 51.68833 0.36776 36019 ft 459 kts 322°
2026-05-04 14:01 51.74996 0.29735 36024 ft 458 kts 322°
2026-05-04 14:02 51.82565 0.21056 36028 ft 457 kts 323°
2026-05-04 14:02 51.87423 0.15466 36025 ft 456 kts 323°
2026-05-04 14:03 51.92697 0.09380 36022 ft 456 kts 323°
2026-05-04 14:03 51.97799 0.03476 36020 ft 455 kts 323°
2026-05-04 14:04 52.05801 -0.04887 36030 ft 456 kts 331°
2026-05-04 14:04 52.11390 -0.09763 36028 ft 455 kts 330°
2026-05-04 14:05 52.19737 -0.17106 36035 ft 456 kts 330°
2026-05-04 14:06 52.25361 -0.22063 36035 ft 456 kts 330°
2026-05-04 14:06 52.30887 -0.26946 36037 ft 456 kts 330°
2026-05-04 14:07 52.36476 -0.31901 36047 ft 457 kts 330°
2026-05-04 14:07 52.41153 -0.36056 36051 ft 457 kts 330°
2026-05-04 14:08 52.46728 -0.41023 36053 ft 457 kts 330°
2026-05-04 14:08 52.52383 -0.46076 36055 ft 457 kts 330°
2026-05-04 14:09 52.60709 -0.53545 36047 ft 456 kts 330°
2026-05-04 14:10 52.68776 -0.60811 36047 ft 456 kts 330°
2026-05-04 14:10 52.74207 -0.65725 36049 ft 454 kts 331°
2026-05-04 14:11 52.79769 -0.70773 36052 ft 455 kts 331°
2026-05-04 14:11 52.88059 -0.78317 36051 ft 454 kts 331°
2026-05-04 14:12 52.93616 -0.83392 36049 ft 453 kts 331°
2026-05-04 14:13 53.01984 -0.91062 36050 ft 452 kts 332°
2026-05-04 14:13 53.07491 -0.96125 36051 ft 451 kts 332°
2026-05-04 14:14 53.12959 -1.01166 36051 ft 451 kts 332°
2026-05-04 14:14 53.21181 -1.08774 36056 ft 450 kts 332°
2026-05-04 14:15 53.31897 -1.18738 36058 ft 450 kts 332°
2026-05-04 14:16 53.40376 -1.26059 36066 ft 455 kts 342°
2026-05-04 14:17 53.46576 -1.28522 36063 ft 459 kts 355°
2026-05-04 14:17 53.49743 -1.28930 36061 ft 457 kts 357°
2026-05-04 14:18 53.59077 -1.31466 35597 ft 453 kts 342°
2026-05-04 14:18 53.64808 -1.36261 33932 ft 463 kts 331°
2026-05-04 14:19 53.70349 -1.41897 32097 ft 464 kts 332°
2026-05-04 14:19 53.73126 -1.44708 31218 ft 464 kts 332°
2026-05-04 14:19 53.75879 -1.47504 30484 ft 461 kts 332°
2026-05-04 14:19 53.78608 -1.50285 29939 ft 454 kts 332°
2026-05-04 14:20 53.81293 -1.53027 29359 ft 446 kts 331°
2026-05-04 14:20 53.83927 -1.55721 28823 ft 439 kts 331°
2026-05-04 14:20 53.86527 -1.58385 28280 ft 432 kts 331°
2026-05-04 14:21 53.91569 -1.63556 27242 ft 420 kts 331°
2026-05-04 14:21 53.94053 -1.66109 26720 ft 415 kts 330°
2026-05-04 14:21 53.96514 -1.68640 26210 ft 410 kts 330°
2026-05-04 14:21 53.98938 -1.71138 25700 ft 405 kts 330°
2026-05-04 14:22 54.01337 -1.73613 25250 ft 400 kts 330°
2026-05-04 14:22 54.03743 -1.76097 25044 ft 413 kts 330°
2026-05-04 14:22 54.06221 -1.78657 24951 ft 415 kts 330°
2026-05-04 14:22 54.08683 -1.81203 24553 ft 415 kts 330°
2026-05-04 14:23 54.13662 -1.85338 22867 ft 423 kts 347°
2026-05-04 14:23 54.16207 -1.85920 22212 ft 420 kts 359°
2026-05-04 14:23 54.19103 -1.85457 21544 ft 415 kts
2026-05-04 14:24 54.20994 -1.84847 21070 ft 413 kts 11°
2026-05-04 14:24 54.24598 -1.83572 20181 ft 410 kts 11°
2026-05-04 14:24 54.26601 -1.82873 19701 ft 408 kts 11°
2026-05-04 14:24 54.29333 -1.81954 19049 ft 405 kts 10°
2026-05-04 14:25 54.32102 -1.81056 18400 ft 403 kts
2026-05-04 14:25 54.37585 -1.79319 17053 ft 395 kts
2026-05-04 14:25 54.40274 -1.78472 16420 ft 391 kts
2026-05-04 14:26 54.42923 -1.77635 16031 ft 381 kts
2026-05-04 14:26 54.45483 -1.76825 15872 ft 366 kts
2026-05-04 14:26 54.47946 -1.76044 15730 ft 353 kts
2026-05-04 14:26 54.50315 -1.75292 15607 ft 339 kts
2026-05-04 14:27 54.52592 -1.74569 15483 ft 326 kts
2026-05-04 14:27 54.54757 -1.73881 15335 ft 315 kts
2026-05-04 14:27 54.56911 -1.73197 15193 ft 304 kts
2026-05-04 14:27 54.58951 -1.72547 15078 ft 292 kts
2026-05-04 14:28 54.60960 -1.71908 14718 ft 291 kts
2026-05-04 14:28 54.62931 -1.71283 14284 ft 293 kts
2026-05-04 14:28 54.64941 -1.70643 13864 ft 294 kts
2026-05-04 14:28 54.66920 -1.69659 13371 ft 298 kts 26°
2026-05-04 14:29 54.70459 -1.65924 12443 ft 301 kts 30°
2026-05-04 14:29 54.73786 -1.61703 11509 ft 291 kts 40°
2026-05-04 14:30 54.75284 -1.59382 11057 ft 286 kts 40°
2026-05-04 14:30 54.76694 -1.56985 10618 ft 282 kts 48°
2026-05-04 14:30 54.79111 -1.51749 9714 ft 274 kts 50°
2026-05-04 14:31 54.80229 -1.49149 9250 ft 270 kts 56°
2026-05-04 14:31 54.82041 -1.43517 8302 ft 264 kts 60°
2026-05-04 14:32 54.84243 -1.38576 7388 ft 256 kts 40°
2026-05-04 14:32 54.85561 -1.36494 6911 ft 256 kts 40°
2026-05-04 14:32 54.86883 -1.34407 6419 ft 256 kts 40°
2026-05-04 14:32 54.88220 -1.32355 5889 ft 255 kts 34°
2026-05-04 14:33 54.89837 -1.31141 5375 ft 248 kts
2026-05-04 14:33 54.91540 -1.30736 4867 ft 246 kts 359°
2026-05-04 14:33 54.93088 -1.31167 4382 ft 240 kts 341°
2026-05-04 14:33 54.94693 -1.32006 3878 ft 241 kts 340°
2026-05-04 14:34 54.96302 -1.32861 3358 ft 241 kts 340°
2026-05-04 14:34 54.97916 -1.33723 2840 ft 242 kts 340°
2026-05-04 14:34 54.99517 -1.34570 2336 ft 242 kts 340°
2026-05-04 14:34 55.01108 -1.35420 2058 ft 232 kts 340°
2026-05-04 14:35 55.02592 -1.36223 1993 ft 213 kts 336°
2026-05-04 14:35 55.03940 -1.37260 1994 ft 211 kts 331°
2026-05-04 14:35 55.05198 -1.38309 1994 ft 194 kts 331°
2026-05-04 14:35 55.06368 -1.39275 1994 ft 179 kts 330°
2026-05-04 14:36 55.07483 -1.40273 1999 ft 182 kts 325°
2026-05-04 14:36 55.08523 -1.41537 2000 ft 178 kts 320°
2026-05-04 14:36 55.09434 -1.42941 1997 ft 176 kts 306°
2026-05-04 14:36 55.09941 -1.44836 1998 ft 169 kts 268°
2026-05-04 14:37 55.09697 -1.46770 1983 ft 155 kts 248°
2026-05-04 14:37 55.09265 -1.48425 2001 ft 151 kts 244°
2026-05-04 14:37 55.08798 -1.50129 1992 ft 158 kts 246°
2026-05-04 14:37 55.08348 -1.51829 2005 ft 153 kts 245°
2026-05-04 14:38 55.07897 -1.53521 1994 ft 152 kts 246°
2026-05-04 14:38 55.07436 -1.55263 1848 ft 163 kts 245°
2026-05-04 14:38 55.06956 -1.57059 1647 ft 161 kts 246°
2026-05-04 14:38 55.06525 -1.58682 1419 ft 148 kts 245°
2026-05-04 14:39 55.06117 -1.60218 1220 ft 139 kts 246°
2026-05-04 14:39 55.05749 -1.61598 1025 ft 131 kts 247°
2026-05-04 14:39 55.05384 -1.62975 861 ft 134 kts 247°
2026-05-04 14:40 55.04604 -1.65929 493 ft 135 kts 246°
2026-05-04 14:40 55.04183 -1.67469 269 ft 134 kts 246°
2026-05-04 14:40 55.03867 -1.68689 250 ft 75 kts 246°
2026-05-04 14:40 55.03699 -1.69375 256 ft 57 kts 247°
2026-05-04 14:41 55.03582 -1.69847 260 ft 21 kts 262°
2026-05-04 14:41 55.03587 -1.70093 262 ft 20 kts 275°
2026-05-04 14:41 55.03597 -1.70515 267 ft 9 kts 265°
2026-05-04 14:42 55.03591 -1.70728 267 ft 7 kts 270°
2026-05-04 14:42 55.03612 -1.70780 267 ft 5 kts 346°
2026-05-04 14:42 55.03641 -1.70782 267 ft 8 kts
2026-05-04 14:43 55.03662 -1.70780 267 ft 0 kts